Regional Weather Roundup
Issued by NWS Goodland, KS

Home | Current Version | Previous Version | Graphics & Text | Print | Product List | Glossary On
Versions: 1 2 3 4 5 6 7 8 9 10 11 12 13 14 15 16 17 18 19 20 21 22 23 24 25 26 27 28 29 30 31 32 33 34 35 36 37 38 39 40 41 42 43 44 45 46 47 48 49 50
000
ASUS43 KGLD 222308
RWRGLD

GOODLAND FORECAST AREA HOURLY WEATHER ROUNDUP
NATIONAL WEATHER SERVICE GOODLAND KS
400 PM MST MON DEC 22 2014

...OFFICIAL OBSERVATIONS...

CITY           SKY/WX    TMP DP  RH WIND       PRES   REMARKS
GOODLAND KS    PTCLDY    41  24  51 NW15G29   29.65R
HILL CITY KS   PTCLDY    48  24  39 NW20G28   29.58R
IMPERIAL NEB   PTCLDY    40  23  50 NW17G24   29.61R
MCCOOK NEB     PTCLDY    44  24  45 NW15G28   29.57R
AKRON CO       CLOUDY    33  25  72 NW13      29.68R
BURLINGTON CO  PTCLDY    39  21  48 NW14      29.66R
LIMON CO       LGT SNOW  29  27  92 NW21      29.70R FOG     WCI  16
$$

...UNOFFICIAL OBSERVATIONS...

CITY           SKY/WX    TMP DP  RH WIND       PRES   REMARKS
COLBY KS       CLEAR     39  28  65 W14       29.64R
GOVE KS          N/A     46  32  58 MISG        N/A
KIT CARSON CO    N/A     37  26  66 MISG        N/A
$$


USA.gov is the U.S. government's official web portal to all federal, state and local government web resources and services.